Theta_e
331 332 334 335 336 337 338 339 341 344 347 351 350 352 356 357 358 353 353 356 354 353 352 354 360 362 362 362 361 360 359 355 352
330 332 333 335 336 337 339 341 343 346 350 352 352 351 355 355 356 356 355 359 358 355 357 355 360 362 361 361 360 359 357 352 350
330 333 334 335 337 338 339 342 345 346 348 350 351 350 352 353 354 355 356 357 357 358 357 358 359 360 360 360 359 357 355 351 349
334 331 334 335 336 338 340 342 343 343 347 347 348 350 352 354 354 354 355 355 357 358 359 358 358 359 359 359 358 356 353 351 347
336 340 337 335 336 337 339 342 344 344 345 347 347 350 354 352 354 354 353 354 356 358 358 359 358 358 358 358 357 355 351 348 344
337 339 339 335 336 338 340 343 346 346 348 348 349 350 350 351 351 352 352 354 356 357 358 358 357 357 355 355 355 353 351 348 343
330 334 340 341 338 339 342 344 347 349 348 350 350 350 351 353 353 355 353 356 358 356 359 358 357 357 356 355 355 353 350 346 343
326 328 330 336 344 342 341 344 345 348 349 351 353 353 352 354 358 359 360 360 360 358 359 359 361 359 356 356 354 351 350 345 341
325 327 330 331 334 345 348 347 348 352 352 351 354 353 352 357 360 360 360 361 360 362 359 360 361 359 358 354 351 341 339 342 339
325 328 331 334 337 339 341 343 346 348 352 355 356 354 355 356 356 357 358 360 362 361 359 360 359 358 358 356 355 334 334 336 338
327 329 333 337 339 339 339 341 344 349 353 356 354 356 357 357 359 357 357 358 359 361 360 354 357 358 356 354 350 331 330 333 341
330 331 334 337 342 343 344 344 345 347 349 351 350 352 356 358 359 359 359 359 359 361 359 357 356 356 350 348 346 328 328 331 336
333 334 337 340 344 346 345 346 346 345 346 348 348 349 350 360 360 359 358 361 362 360 352 356 355 347 344 335 336 327 324 324 329
336 339 339 345 347 342 341 347 345 344 345 345 350 352 354 355 359 362 362 364 364 357 351 354 345 340 338 338 336 330 322 322 322
335 336 333 341 345 342 343 343 344 343 343 347 351 353 353 353 354 355 357 356 353 346 341 339 338 337 336 336 337 326 321 320 320
330 327 326 326 329 333 337 340 341 340 344 347 348 350 351 350 351 352 349 348 343 340 341 339 337 337 335 333 332 328 319 317 317
322 323 322 321 321 322 324 327 329 332 335 338 343 347 349 350 349 347 350 341 341 338 340 339 340 339 335 334 331 327 322 321 321
318 319 318 319 320 321 322 325 326 327 329 332 336 343 346 347 347 348 345 347 343 338 345 340 340 340 339 333 326 325 318 320 325
316 317 318 320 321 322 325 327 328 331 332 331 334 338 342 342 340 341 341 340 338 313 315 314 311 312 327 336 321 312 309 305 308
316 318 320 321 321 323 325 327 328 332 334 334 335 337 340 343 338 341 338 336 337 335 322 312 308 307 309 310 316 307 304 304 304
Wind_Speed
11 17 16 19 20 19 18 19 18 17 16 15 17 17 16 14 14 11 11 11 8 8 9 9 10 10 9 9 9 8 7 6 6
9 16 18 19 18 18 17 15 18 18 16 14 15 17 14 15 13 13 12 12 11 9 9 8 10 12 11 11 10 10 9 6 7
2 9 13 15 16 17 16 16 14 14 15 17 17 17 16 14 16 15 14 12 12 12 10 11 11 12 13 12 11 10 10 7 7
7 4 10 11 11 13 15 15 16 17 16 16 16 16 15 15 15 15 14 13 13 12 11 11 12 13 13 13 12 12 10 9 8
8 6 5 8 11 12 13 14 15 16 16 16 15 15 14 16 14 14 15 15 15 13 14 13 13 13 13 13 13 12 12 12 10
7 8 7 5 4 6 6 6 6 8 9 11 12 13 15 15 15 16 16 16 16 15 14 14 13 13 14 14 14 14 13 13 12
9 12 11 10 7 5 5 5 7 8 10 11 11 11 11 13 16 17 18 16 15 16 14 15 15 15 14 15 16 16 15 14 13
10 12 12 11 8 8 7 8 7 7 8 10 11 12 12 15 13 14 13 13 15 16 15 15 15 15 16 16 15 14 16 16 15
9 9 10 10 9 10 10 7 4 4 2 7 9 12 13 12 12 13 14 14 15 15 16 16 15 17 17 17 13 16 18 18 15
4 5 7 8 8 7 5 4 4 3 1 6 5 7 10 13 13 15 16 15 15 16 17 16 19 18 17 19 18 19 25 23 14
4 2 3 3 3 5 6 5 6 6 5 4 9 8 13 12 13 14 14 14 16 16 15 14 14 15 16 15 15 21 26 27 16
6 5 5 4 2 2 3 5 6 5 6 6 6 7 10 12 14 16 14 14 15 13 13 12 12 11 10 10 10 8 18 22 13
7 7 5 4 2 1 2 3 1 1 2 4 3 3 7 10 11 12 14 13 13 11 10 11 8 8 7 10 8 17 10 10 14
4 5 5 5 4 3 1 2 1 1 2 1 2 2 5 7 8 10 13 13 11 10 11 11 10 12 12 15 13 12 24 23 9
5 5 3 2 4 3 5 7 6 8 8 7 7 7 7 7 6 4 6 10 3 5 7 8 8 7 6 5 11 17 25 25 21
6 5 4 4 5 5 5 5 5 8 8 8 7 5 5 5 6 6 4 4 4 4 7 6 6 8 8 9 9 9 24 30 28
6 6 5 3 3 5 5 6 6 7 10 10 9 8 5 4 5 5 3 1 2 4 6 7 9 9 9 8 7 6 10 11 15
6 5 4 2 2 2 4 5 7 9 8 8 10 10 7 6 4 4 5 5 5 5 8 10 11 10 10 9 8 9 11 14 13
7 7 5 5 4 4 4 5 7 9 8 7 9 10 9 6 4 5 5 5 5 2 4 10 10 9 10 9 10 11 17 12 13
10 8 7 6 5 5 5 5 7 8 8 8 10 10 12 8 6 6 5 6 5 5 3 5 9 11 12 11 11 14 15 16 18
Wind_Direction
188 202 202 205 209 205 203 202 197 195 195 194 193 199 201 201 204 205 207 203 199 201 199 200 193 199 198 198 201 197 191 186 189
175 194 199 203 204 211 205 201 197 194 188 194 192 196 197 197 201 210 210 202 200 202 204 199 197 194 199 201 201 198 185 190 189
207 215 209 211 206 204 198 197 199 198 198 195 193 197 200 199 201 206 208 201 205 204 199 201 196 201 202 198 197 195 194 188 186
335 289 233 220 216 206 200 195 193 195 193 198 197 199 200 203 201 204 207 208 208 208 205 200 203 201 204 203 199 195 195 199 188
341 336 302 239 218 207 195 195 196 199 197 197 198 198 195 199 205 205 204 210 210 207 206 201 205 204 205 204 202 196 197 196 195
24 31 33 15 226 210 203 195 202 216 219 227 226 207 204 206 206 204 209 212 213 206 206 208 208 204 204 204 202 199 201 200 198
42 48 50 58 53 76 115 155 181 193 207 210 216 224 226 217 213 210 210 209 208 208 206 205 207 207 205 206 204 201 198 197 197
43 52 57 56 63 90 119 132 174 185 214 205 207 211 212 225 227 228 219 218 208 203 210 209 200 200 209 210 207 206 200 195 193
29 45 57 63 57 70 90 114 86 92 262 242 218 201 220 234 234 226 227 221 216 211 201 209 209 204 199 206 212 201 193 192 191
360 55 63 69 76 84 69 27 16 20 318 352 219 257 244 232 230 226 221 218 216 220 217 207 203 206 205 206 208 184 184 194 192
269 146 138 120 100 98 98 69 44 5 10 358 14 329 292 273 256 239 232 224 221 219 220 217 217 217 215 217 208 182 186 189 199
221 205 193 176 157 127 72 33 13 12 16 14 354 307 291 284 276 263 250 235 230 227 229 220 216 216 211 217 258 234 206 189 195
211 227 231 223 191 232 216 155 149 177 101 130 123 322 300 301 293 267 258 251 240 229 223 222 194 173 162 159 147 136 106 340 351
264 251 235 230 243 265 286 131 20 118 256 67 114 24 2 4 337 295 270 257 245 214 213 204 180 186 176 169 190 168 157 134 158
275 281 290 252 247 308 354 7 354 346 345 350 351 3 6 349 352 330 288 270 253 165 153 170 191 198 184 203 205 176 152 168 175
279 265 284 324 335 337 348 355 348 319 312 324 322 326 333 332 334 338 299 254 176 170 168 175 186 195 204 207 183 188 164 161 153
292 296 299 313 293 294 316 341 328 300 306 312 297 287 292 298 305 317 286 189 168 177 171 180 197 207 219 219 208 183 165 178 174
282 255 237 263 268 289 304 318 310 305 312 315 300 288 280 273 269 261 265 252 217 208 219 219 216 216 218 209 214 200 179 191 180
263 235 222 223 225 255 289 305 302 306 318 311 300 289 277 262 262 261 254 249 245 190 257 237 244 249 220 211 233 179 178 184 158
257 234 209 224 245 266 281 292 297 308 323 311 294 274 274 265 232 248 247 258 238 248 195 236 233 219 218 215 185 170 161 150 146